When you browse on this site, cookies collect data to enhance your experience and personalize the content and advertising you see.
Visit our Privacy Policy to learn more. By continuing to use the site, you agree to this use of cookies and data.
  • In Netherlands
  • List of Countries
  • For 7 days
  • Water Temperature
  • Satellite Maps
  • Weather Map
  • Weather Widgets
  • user-avatar
    Login

    Hourly Weather Wiktoria

    Today, 20 March, Wednesday

    Time Temperature Precipitation Wind Pressure Humidity
    00:00 +20°C° 0 mm 3 mps 748 mmHg 84%
    01:00 +20°C° 0 mm 3 mps 748 mmHg 88%
    02:00 +19°C° 0 mm 3 mps 748 mmHg 89%
    03:00 +19°C° 0 mm 3 mps 748 mmHg 89%
    04:00 +18°C° 0 mm 2 mps 748 mmHg 91%
    05:00 +18°C° 0 mm 2 mps 748 mmHg 90%
    06:00 +18°C° 0 mm 2 mps 748 mmHg 89%
    07:00 +19°C° 0 mm 2 mps 749 mmHg 88%
    08:00 +21°C° 0 mm 2 mps 749 mmHg 76%
    09:00 +25°C° 0 mm 2 mps 749 mmHg 65%
    10:00 +27°C° 0 mm 2 mps 749 mmHg 55%
    11:00 +29°C° 0 mm 1 mps 749 mmHg 48%
    12:00 +31°C° 0 mm 1 mps 748 mmHg 40%
    13:00 +31°C° 0 mm 0 mps 748 mmHg 33%
    14:00 +33°C° 0 mm 1 mps 748 mmHg 31%
    15:00 +33°C° 0 mm 1 mps 747 mmHg 30%
    16:00 +34°C° 0 mm 2 mps 747 mmHg 28%
    17:00 +31°C° 0 mm 2 mps 747 mmHg 32%
    18:00 +29°C° 0 mm 2 mps 747 mmHg 36%
    19:00 +28°C° 0 mm 3 mps 748 mmHg 41%
    20:00 +26°C° 0 mm 3 mps 748 mmHg 50%
    21:00 +25°C° 0 mm 4 mps 748 mmHg 60%
    22:00 +23°C° 0 mm 4 mps 748 mmHg 69%
    23:00 +22°C° 0 mm 4 mps 748 mmHg 73%

    Tomorrow, 21 March, Thursday

    Time Temperature Precipitation Wind Pressure Humidity
    00:00 +21°C° 0 mm 3 mps 749 mmHg 77%
    01:00 +21°C° 0 mm 3 mps 749 mmHg 81%
    02:00 +20°C° 0 mm 2 mps 749 mmHg 83%
    03:00 +20°C° 0 mm 2 mps 748 mmHg 85%
    04:00 +19°C° 0 mm 2 mps 748 mmHg 86%
    05:00 +19°C° 0 mm 2 mps 749 mmHg 86%
    06:00 +19°C° 0 mm 2 mps 749 mmHg 85%
    07:00 +20°C° 0 mm 2 mps 749 mmHg 84%
    08:00 +23°C° 0 mm 2 mps 749 mmHg 74%
    09:00 +25°C° 0 mm 3 mps 750 mmHg 64%
    10:00 +28°C° 0 mm 3 mps 750 mmHg 54%
    11:00 +29°C° 0 mm 2 mps 750 mmHg 47%
    12:00 +31°C° 0 mm 1 mps 749 mmHg 41%
    13:00 +33°C° 0 mm 1 mps 749 mmHg 34%
    14:00 +33°C° 0 mm 1 mps 748 mmHg 32%
    15:00 +33°C° 0 mm 1 mps 748 mmHg 30%
    16:00 +34°C° 0 mm 2 mps 747 mmHg 28%
    17:00 +33°C° 0 mm 3 mps 748 mmHg 33%
    18:00 +30°C° 0 mm 4 mps 748 mmHg 39%
    19:00 +28°C° 0 mm 4 mps 748 mmHg 44%
    20:00 +27°C° 0 mm 4 mps 748 mmHg 51%
    21:00 +26°C° 0 mm 4 mps 749 mmHg 57%
    22:00 +25°C° 0 mm 4 mps 749 mmHg 63%
    23:00 +23°C° 0.5 mm 4 mps 749 mmHg 68%

    Day after tomorrow, 22 March, Friday

    Time Temperature Precipitation Wind Pressure Humidity
    00:00 +22°C° 0.5 mm 3 mps 749 mmHg 72%
    01:00 +21°C° 0.5 mm 3 mps 749 mmHg 76%
    02:00 +21°C° 0.3 mm 3 mps 749 mmHg 77%
    03:00 +21°C° 0.3 mm 3 mps 749 mmHg 77%
    04:00 +20°C° 0.3 mm 3 mps 749 mmHg 78%
    05:00 +20°C° 0.1 mm 3 mps 749 mmHg 79%
    06:00 +20°C° 0.1 mm 3 mps 749 mmHg 80%
    07:00 +20°C° 0.1 mm 3 mps 750 mmHg 81%
    08:00 +22°C° 0 mm 4 mps 750 mmHg 74%
    09:00 +25°C° 0 mm 4 mps 750 mmHg 66%
    10:00 +27°C° 0 mm 5 mps 750 mmHg 59%
    11:00 +28°C° 0 mm 5 mps 749 mmHg 54%
    12:00 +30°C° 0 mm 5 mps 749 mmHg 48%
    13:00 +33°C° 0 mm 4 mps 748 mmHg 42%
    14:00 +33°C° 0 mm 4 mps 748 mmHg 40%
    15:00 +34°C° 0 mm 3 mps 747 mmHg 37%
    16:00 +34°C° 0 mm 2 mps 746 mmHg 34%
    17:00 +33°C° 0 mm 3 mps 746 mmHg 38%
    18:00 +30°C° 0 mm 3 mps 746 mmHg 41%
    19:00 +29°C° 0 mm 3 mps 746 mmHg 45%
    20:00 +28°C° 0.1 mm 4 mps 747 mmHg 48%
    21:00 +27°C° 0.1 mm 5 mps 747 mmHg 51%
    22:00 +26°C° 0.1 mm 5 mps 747 mmHg 55%
    23:00 +26°C° 0 mm 6 mps 747 mmHg 57%

    23 March, Saturday

    Time Temperature Precipitation Wind Pressure Humidity
    00:00 +24°C° 0 mm 6 mps 747 mmHg 59%
    01:00 +23°C° 0 mm 7 mps 746 mmHg 62%
    02:00 +23°C° 0 mm 6 mps 746 mmHg 62%
    03:00 +23°C° 0 mm 6 mps 746 mmHg 62%
    04:00 +23°C° 0 mm 6 mps 745 mmHg 62%
    05:00 +23°C° 0 mm 6 mps 746 mmHg 62%
    06:00 +23°C° 0 mm 6 mps 746 mmHg 62%
    07:00 +23°C° 0 mm 6 mps 746 mmHg 63%
    08:00 +24°C° 0 mm 7 mps 745 mmHg 59%
    09:00 +26°C° 0 mm 7 mps 745 mmHg 55%
    10:00 +27°C° 0 mm 8 mps 745 mmHg 51%
    11:00 +28°C° 0 mm 7 mps 744 mmHg 47%
    12:00 +29°C° 0 mm 7 mps 744 mmHg 43%
    13:00 +30°C° 0 mm 6 mps 743 mmHg 40%
    14:00 +33°C° 0 mm 5 mps 743 mmHg 33%
    15:00 +35°C° 0 mm 4 mps 742 mmHg 27%
    16:00 +37°C° 0 mm 3 mps 742 mmHg 20%
    17:00 +35°C° 0 mm 3 mps 742 mmHg 23%
    18:00 +33°C° 0 mm 3 mps 742 mmHg 26%
    19:00 +30°C° 0 mm 2 mps 742 mmHg 30%
    20:00 +29°C° 0 mm 2 mps 743 mmHg 31%
    21:00 +28°C° 0 mm 2 mps 743 mmHg 33%
    22:00 +27°C° 0 mm 2 mps 744 mmHg 34%
    23:00 +26°C° 0 mm 2 mps 744 mmHg 37%

    24 March, Sunday

    Time Temperature Precipitation Wind Pressure Humidity
    00:00 +25°C° 0 mm 2 mps 744 mmHg 40%
    01:00 +24°C° 0 mm 2 mps 745 mmHg 43%
    02:00 +24°C° 0 mm 2 mps 745 mmHg 49%
    03:00 +23°C° 0 mm 2 mps 745 mmHg 55%
    04:00 +21°C° 0 mm 2 mps 745 mmHg 61%
    05:00 +21°C° 0 mm 2 mps 745 mmHg 65%
    06:00 +22°C° 0 mm 1 mps 745 mmHg 69%
    07:00 +21°C° 0 mm 1 mps 745 mmHg 73%
    08:00 +23°C° 0 mm 1 mps 745 mmHg 66%
    09:00 +25°C° 0 mm 2 mps 745 mmHg 58%
    10:00 +26°C° 0 mm 2 mps 745 mmHg 51%
    11:00 +28°C° 0 mm 3 mps 745 mmHg 44%
    12:00 +29°C° 0 mm 4 mps 744 mmHg 38%
    13:00 +30°C° 0 mm 5 mps 744 mmHg 31%
    14:00 +30°C° 0 mm 6 mps 743 mmHg 33%
    15:00 +30°C° 0 mm 7 mps 743 mmHg 35%
    16:00 +30°C° 0 mm 7 mps 742 mmHg 36%
    17:00 +29°C° 0.2 mm 7 mps 742 mmHg 41%
    18:00 +28°C° 0.2 mm 6 mps 742 mmHg 46%
    19:00 +27°C° 0.2 mm 5 mps 742 mmHg 51%
    20:00 +26°C° 0.1 mm 6 mps 742 mmHg 54%
    21:00 +26°C° 0.1 mm 7 mps 742 mmHg 58%
    22:00 +24°C° 0.1 mm 8 mps 743 mmHg 62%
    23:00 +24°C° 0.2 mm 8 mps 742 mmHg 65%

    25 March, Monday

    Time Temperature Precipitation Wind Pressure Humidity
    00:00 +23°C° 0.2 mm 7 mps 742 mmHg 67%
    01:00 +23°C° 0.2 mm 7 mps 742 mmHg 70%
    02:00 +22°C° 0.4 mm 7 mps 742 mmHg 66%
    03:00 +20°C° 0.4 mm 7 mps 742 mmHg 62%
    04:00 +18°C° 0.4 mm 7 mps 743 mmHg 57%
    05:00 +17°C° 0 mm 7 mps 744 mmHg 55%
    06:00 +15°C° 0 mm 7 mps 745 mmHg 52%
    07:00 +14°C° 0 mm 7 mps 747 mmHg 50%
    08:00 +15°C° 0 mm 7 mps 747 mmHg 44%
    09:00 +15°C° 0 mm 7 mps 748 mmHg 38%
    10:00 +16°C° 0 mm 7 mps 749 mmHg 32%
    11:00 +17°C° 0 mm 7 mps 749 mmHg 30%
    12:00 +18°C° 0 mm 7 mps 749 mmHg 29%
    13:00 +20°C° 0 mm 7 mps 749 mmHg 27%
    14:00 +20°C° 0 mm 7 mps 749 mmHg 27%
    15:00 +20°C° 0 mm 7 mps 749 mmHg 28%
    16:00 +20°C° 0 mm 7 mps 749 mmHg 29%
    17:00 +17°C° 0 mm 6 mps 749 mmHg 32%
    18:00 +16°C° 0 mm 5 mps 750 mmHg 34%
    19:00 +16°C° 0 mm 3 mps 751 mmHg 37%
    20:00 +14°C° 0 mm 3 mps 751 mmHg 40%
    21:00 +13°C° 0 mm 4 mps 752 mmHg 43%
    22:00 +13°C° 0 mm 4 mps 753 mmHg 46%
    23:00 +12°C° 0 mm 4 mps 753 mmHg 50%
    Show more